FW9817 Weather Reports


Display with metric or nautical units.
time (UTC)temp
F
wind
direction
speed
MPH
gust
MPH
rain 1hr
in
rain 24hr
in
rain mn
in
humidity
%
barometer
mb
20260506234603 58 243 0.0 2.0 0.18 0.52 0.52 94 1003.3
20260506233058 59 259 0.0 2.0 0.18 0.52 0.52 94 1003.3
20260506231559 59 0 1.0 4.0 0.14 0.48 0.48 94 1003.2
20260506230059 59 169 1.0 6.0 0.02 0.36 0.36 93 1003.0
20260506224559 59 236 0.0 6.0 0.01 0.40 0.35 93 1003.1
20260506223057 59 131 4.0 11.0 0.00 0.39 0.34 92 1003.2
20260506221601 59 149 5.0 10.0 0.00 0.39 0.34 92 1003.3
20260506220108 59 178 4.0 8.0 0.01 0.39 0.34 92 1003.4
20260506214602 59 172 5.0 11.0 0.01 0.42 0.34 93 1003.5
20260506213104 59 155 3.0 9.0 0.02 0.42 0.34 94 1003.7
20260506211558 58 150 3.0 7.0 0.02 0.42 0.34 93 1003.6
20260506210120 58 132 2.0 5.0 0.01 0.41 0.33 93 1003.6
20260506204558 59 106 2.0 5.0 0.02 0.41 0.33 94 1003.8
20260506203141 58 119 1.0 4.0 0.09 0.40 0.32 94 1004.0
20260506201558 58 115 2.0 4.0 0.10 0.40 0.32 94 1004.2
20260506194558 57 147 4.0 7.0 0.13 0.39 0.31 94 1004.7
20260506193057 57 167 4.0 7.0 0.05 0.31 0.23 92 1004.8
20260506191605 58 131 2.0 5.0 0.06 0.30 0.22 93 1004.8
20260506190100 58 128 4.0 5.0 0.06 0.28 0.20 93 1005.1
20260506184603 59 124 1.0 5.0 0.06 0.26 0.18 92 1005.2
20260506183111 59 142 0.0 3.0 0.09 0.26 0.18 92 1005.3
20260506181601 60 203 0.0 3.0 0.09 0.24 0.16 92 1005.7
20260506174609 60 0 0.0 1.0 0.12 0.20 0.12 93 1005.8
20260506173059 60 0 0.0 1.0 0.09 0.17 0.09 92 1005.9
20260506171611 60 0 0.0 1.0 0.07 0.15 0.07 90 1005.6
20260506164601 61 0 0.0 2.0 0.00 0.08 0.00 81 1005.8
20260506163133 62 114 1.0 3.0 0.00 0.08 0.00 81 1005.9
20260506161602 63 120 0.0 2.0 0.00 0.08 0.00 81 1006.3
20260506154557 62 0 0.0 3.0 0.00 0.08 0.00 80 1007.3
20260506153119 62 121 0.0 4.0 0.00 0.08 0.00 79 1007.3
20260506151558 61 0 0.0 1.0 0.00 0.08 0.00 79 1007.4
20260506150056 62 133 1.0 2.0 0.00 0.08 0.00 79 1007.4
20260506144558 61 0 0.0 2.0 0.00 0.08 0.00 79 1007.4
20260506143058 61 0 0.0 2.0 0.00 0.08 0.00 80 1007.2
20260506141600 60 129 1.0 2.0 0.00 0.08 0.00 80 1007.3
20260506134556 59 0 0.0 2.0 0.00 0.08 0.00 82 1007.5
20260506133100 59 124 0.0 2.0 0.00 0.08 0.00 82 1007.8
20260506131608 58 0 0.0 3.0 0.00 0.08 0.00 82 1007.9
20260506130059 58 121 2.0 5.0 0.00 0.08 0.00 82 1007.6
20260506124558 59 141 0.0 2.0 0.00 0.08 0.00 81 1007.8
20260506123111 58 0 0.0 1.0 0.00 0.08 0.00 82 1007.8
20260506113058 57 156 1.0 4.0 0.00 0.08 0.00 83 1008.1
20260506111558 57 0 0.0 3.0 0.00 0.08 0.00 84 1008.1
20260506110104 55 108 0.0 2.0 0.00 0.08 0.00 90 1008.1
20260506104609 54 0 0.0 1.0 0.00 0.08 0.00 91 1008.2
20260506103107 53 0 0.0 0.0 0.00 0.08 0.00 92 1008.2
20260506101637 53 0 0.0 0.0 0.00 0.08 0.00 91 1008.1
20260506100110 54 0 0.0 0.0 0.00 0.08 0.00 91 1008.0
20260506093107 54 0 0.0 0.0 0.00 0.08 0.00 91 1007.8
20260506091603 54 0 0.0 2.0 0.00 0.08 0.00 89 1007.6
20260506090112 55 0 0.0 0.0 0.00 0.08 0.00 90 1007.8
20260506083108 57 0 1.0 1.0 0.00 0.08 0.00 86 1007.9
20260506081619 58 337 0.0 2.0 0.00 0.08 0.00 84 1007.8
20260506073058 57 336 0.0 2.0 0.00 0.08 0.00 90 1007.8
20260506071601 56 0 0.0 1.0 0.00 0.08 0.00 89 1007.5
20260506070104 57 0 0.0 0.0 0.00 0.08 0.00 89 1007.5
20260506061557 59 0 0.0 1.0 0.00 0.08 0.00 84 1007.5
20260506050115 60 0 0.0 2.0 0.00 0.08 0.00 84 1007.6
20260506044600 60 0 0.0 2.0 0.00 0.08 0.00 84 1007.7
20260506043059 59 333 0.0 2.0 0.00 0.08 0.00 86 1007.6
20260506040059 60 0 0.0 1.0 0.00 0.08 0.00 86 1007.5
20260506034603 60 0 0.0 3.0 0.00 0.08 0.08 82 1007.6
20260506033059 61 0 0.0 3.0 0.00 0.08 0.08 81 1007.6
20260506031604 62 340 2.0 3.0 0.00 0.08 0.08 80 1007.7
20260506024608 60 0 0.0 1.0 0.00 0.08 0.08 81 1007.5
20260506023112 62 336 1.0 2.0 0.00 0.08 0.08 79 1007.4
20260506021602 60 343 0.0 1.0 0.00 0.08 0.08 82 1007.1
20260506020059 61 0 0.0 0.0 0.00 0.08 0.08 80 1007.5
20260506014558 61 0 0.0 0.0 0.00 0.08 0.08 80 1007.6
20260506013105 61 0 0.0 1.0 0.00 0.08 0.08 81 1007.5
20260506011606 60 347 0.0 2.0 0.00 0.08 0.08 81 1007.6
20260506010058 61 0 0.0 2.0 0.00 0.08 0.08 79 1007.4
20260506004601 63 0 0.0 2.0 0.00 0.08 0.08 78 1007.4
20260506003059 61 0 0.0 1.0 0.00 0.08 0.08 79 1006.8
20260506001600 62 0 0.0 4.0 0.00 0.08 0.08 76 1006.6